Location: Champs
(48.8539°N, 2.6040°E)
Time: 17:11:42
(UTC+00:00)

DMSP 5D-2 F13 DEB - Pass Details

Date: 14 August 2022
Orbit: 710 x 775 km, 98.8° (Epoch: 23 September)

Event Time Altitude Azimuth Distance (km) Brightness Sun altitude
Exits shadow 23:21:46 70° 259° (W) 827 ? -26.6°
Drops below altitude 10° 23:26:55 10° 341° (NNW) 2,342 ? -26.7°
Sets 23:29:16 0° 344° (NNW) 3,277 ? -26.8°
